カタログに戻る

TITAN 4B CENTAUR R/B

運用中UNKNOWN
NORAD 25725·ROCKET BODY·🇺🇸 United States

打ち上げ Apr 30, 1999 から Cape Canaveral Space Force Station

Loading…

次のパス (今後24時間)

TLE

最新Source: Space-Track

元期: Sep 14, 2026, 07:03 UTC

1 25725U 99023B   26257.29413222  .00000028  00000-0  30907-5 0  9995
2 25725  28.3098 235.8803 2383254 129.4743 254.1942  9.67500215265633

AllMySatでTITAN 4B CENTAUR R/Bをリアルタイム追跡

Download on the App Store